• In Austria
  • List of Countries
  • For 7 days
  • Water Temperature
  • Satellite Maps
  • Weather Map
  • News
  • Weather Widgets
  • user-avatar
    Login

    Hourly Weather Lubumbashi

    Today, 22 September, Saturday

    Time Temperature Precipitation Wind Pressure Humidity
    00:00 +35°C° 0 mm 4 mps 717 mmHg 39%
    01:00 +34°C° 0 mm 3 mps 717 mmHg 42%
    02:00 +33°C° 0 mm 3 mps 717 mmHg 45%
    03:00 +33°C° 0.7 mm 3 mps 717 mmHg 49%
    04:00 +31°C° 0.7 mm 2 mps 718 mmHg 54%
    05:00 +30°C° 0.7 mm 2 mps 718 mmHg 59%
    06:00 +30°C° 0.2 mm 2 mps 718 mmHg 59%
    07:00 +30°C° 0.2 mm 3 mps 719 mmHg 58%
    08:00 +32°C° 0.2 mm 4 mps 719 mmHg 58%
    09:00 +33°C° 0 mm 4 mps 719 mmHg 53%
    10:00 +35°C° 0 mm 5 mps 720 mmHg 48%
    11:00 +36°C° 0 mm 5 mps 720 mmHg 42%
    12:00 +37°C° 0 mm 5 mps 719 mmHg 40%
    13:00 +38°C° 0 mm 4 mps 719 mmHg 37%
    14:00 +38°C° 0 mm 3 mps 718 mmHg 34%
    15:00 +38°C° 0 mm 3 mps 717 mmHg 34%
    16:00 +38°C° 0 mm 2 mps 717 mmHg 34%
    17:00 +38°C° 0 mm 2 mps 717 mmHg 34%
    18:00 +37°C° 0 mm 2 mps 717 mmHg 36%
    19:00 +35°C° 0 mm 1 mps 717 mmHg 38%
    20:00 +35°C° 0 mm 1 mps 717 mmHg 40%
    21:00 +35°C° 0.1 mm 2 mps 718 mmHg 42%
    22:00 +34°C° 0.1 mm 2 mps 718 mmHg 44%
    23:00 +34°C° 0.1 mm 3 mps 719 mmHg 46%

    Tomorrow, 23 September, Sunday

    Time Temperature Precipitation Wind Pressure Humidity
    00:00 +33°C° 0.1 mm 3 mps 719 mmHg 51%
    01:00 +31°C° 0.1 mm 3 mps 718 mmHg 56%
    02:00 +30°C° 0.1 mm 3 mps 718 mmHg 61%
    03:00 +30°C° 0.2 mm 2 mps 718 mmHg 63%
    04:00 +29°C° 0.2 mm 2 mps 718 mmHg 65%
    05:00 +29°C° 0.2 mm 1 mps 718 mmHg 67%
    06:00 +30°C° 0 mm 1 mps 719 mmHg 64%
    07:00 +30°C° 0 mm 2 mps 719 mmHg 60%
    08:00 +31°C° 0 mm 2 mps 720 mmHg 57%
    09:00 +34°C° 0 mm 2 mps 720 mmHg 52%
    10:00 +35°C° 0 mm 3 mps 720 mmHg 46%
    11:00 +37°C° 0 mm 3 mps 720 mmHg 40%
    12:00 +38°C° 0 mm 3 mps 719 mmHg 36%
    13:00 +40°C° 0 mm 4 mps 718 mmHg 31%
    14:00 +41°C° 0 mm 5 mps 718 mmHg 27%
    15:00 +41°C° 0 mm 4 mps 717 mmHg 27%
    16:00 +41°C° 0 mm 4 mps 717 mmHg 28%
    17:00 +40°C° 0 mm 4 mps 717 mmHg 28%
    18:00 +38°C° 0 mm 4 mps 717 mmHg 31%
    19:00 +37°C° 0 mm 4 mps 718 mmHg 33%
    20:00 +36°C° 0 mm 4 mps 718 mmHg 36%
    21:00 +35°C° 0.1 mm 3 mps 719 mmHg 39%
    22:00 +35°C° 0.1 mm 3 mps 719 mmHg 43%
    23:00 +34°C° 0.1 mm 3 mps 719 mmHg 46%

    Day after tomorrow, 24 September, Monday

    Time Temperature Precipitation Wind Pressure Humidity
    00:00 +33°C° 0.5 mm 3 mps 718 mmHg 50%
    01:00 +31°C° 0.5 mm 3 mps 718 mmHg 53%
    02:00 +31°C° 0.5 mm 3 mps 718 mmHg 56%
    03:00 +30°C° 0.1 mm 3 mps 717 mmHg 57%
    04:00 +30°C° 0.1 mm 3 mps 717 mmHg 58%
    05:00 +30°C° 0.1 mm 2 mps 717 mmHg 58%
    06:00 +31°C° 0 mm 2 mps 718 mmHg 55%
    07:00 +31°C° 0 mm 1 mps 719 mmHg 52%
    08:00 +32°C° 0 mm 1 mps 719 mmHg 48%
    09:00 +34°C° 0 mm 1 mps 719 mmHg 43%
    10:00 +37°C° 0 mm 2 mps 719 mmHg 38%
    11:00 +38°C° 0 mm 2 mps 719 mmHg 33%
    12:00 +39°C° 0 mm 2 mps 718 mmHg 31%
    13:00 +40°C° 0 mm 1 mps 717 mmHg 28%
    14:00 +41°C° 0 mm 1 mps 716 mmHg 26%
    15:00 +40°C° 0 mm 1 mps 716 mmHg 27%
    16:00 +40°C° 0 mm 1 mps 716 mmHg 29%
    17:00 +39°C° 0 mm 1 mps 716 mmHg 30%
    18:00 +39°C° 0.1 mm 1 mps 717 mmHg 32%
    19:00 +38°C° 0.1 mm 2 mps 717 mmHg 34%
    20:00 +37°C° 0.1 mm 3 mps 717 mmHg 35%
    21:00 +36°C° 0.1 mm 2 mps 717 mmHg 38%
    22:00 +36°C° 0.1 mm 2 mps 717 mmHg 40%
    23:00 +35°C° 0.1 mm 2 mps 717 mmHg 42%

    25 September, Tuesday

    Time Temperature Precipitation Wind Pressure Humidity
    00:00 +35°C° 0 mm 3 mps 717 mmHg 43%
    01:00 +34°C° 0 mm 3 mps 717 mmHg 43%
    02:00 +34°C° 0 mm 4 mps 716 mmHg 44%
    03:00 +33°C° 0 mm 4 mps 717 mmHg 46%
    04:00 +32°C° 0 mm 4 mps 717 mmHg 49%
    05:00 +32°C° 0 mm 5 mps 717 mmHg 51%
    06:00 +32°C° 0 mm 5 mps 718 mmHg 53%
    07:00 +32°C° 0 mm 5 mps 719 mmHg 54%
    08:00 +32°C° 0 mm 5 mps 719 mmHg 56%
    09:00 +34°C° 0 mm 6 mps 719 mmHg 52%
    10:00 +35°C° 0 mm 6 mps 719 mmHg 48%
    11:00 +36°C° 0 mm 6 mps 719 mmHg 43%
    12:00 +38°C° 0 mm 6 mps 718 mmHg 40%
    13:00 +39°C° 0 mm 5 mps 718 mmHg 38%
    14:00 +40°C° 0 mm 5 mps 717 mmHg 35%
    15:00 +40°C° 0 mm 4 mps 717 mmHg 35%
    16:00 +38°C° 0 mm 4 mps 717 mmHg 35%
    17:00 +38°C° 0 mm 3 mps 717 mmHg 35%
    18:00 +37°C° 0 mm 4 mps 717 mmHg 39%
    19:00 +36°C° 0 mm 4 mps 717 mmHg 43%
    20:00 +35°C° 0 mm 5 mps 717 mmHg 47%
    21:00 +34°C° 0.1 mm 5 mps 718 mmHg 50%
    22:00 +33°C° 0.1 mm 6 mps 718 mmHg 52%
    23:00 +32°C° 0.1 mm 6 mps 719 mmHg 55%

    26 September, Wednesday

    Time Temperature Precipitation Wind Pressure Humidity
    00:00 +32°C° 0.3 mm 5 mps 718 mmHg 57%
    01:00 +30°C° 0.3 mm 4 mps 718 mmHg 59%
    02:00 +30°C° 0.3 mm 2 mps 718 mmHg 62%
    03:00 +29°C° 2 mm 4 mps 718 mmHg 65%
    04:00 +29°C° 2 mm 5 mps 718 mmHg 69%
    05:00 +28°C° 2 mm 6 mps 719 mmHg 72%
    06:00 +28°C° 0.6 mm 5 mps 719 mmHg 70%
    07:00 +29°C° 0.6 mm 5 mps 719 mmHg 67%
    08:00 +29°C° 0.6 mm 4 mps 720 mmHg 64%
    09:00 +32°C° 0 mm 4 mps 720 mmHg 55%
    10:00 +34°C° 0 mm 3 mps 720 mmHg 46%
    11:00 +36°C° 0 mm 3 mps 719 mmHg 37%
    12:00 +37°C° 0 mm 2 mps 719 mmHg 33%
    13:00 +38°C° 0 mm 2 mps 718 mmHg 29%
    14:00 +39°C° 0 mm 2 mps 717 mmHg 26%
    15:00 +39°C° 0 mm 2 mps 717 mmHg 26%
    16:00 +38°C° 0 mm 3 mps 717 mmHg 27%
    17:00 +38°C° 0 mm 3 mps 717 mmHg 28%
    18:00 +37°C° 0 mm 3 mps 717 mmHg 31%
    19:00 +36°C° 0 mm 3 mps 718 mmHg 34%
    20:00 +35°C° 0 mm 3 mps 718 mmHg 37%
    21:00 +34°C° 0 mm 3 mps 718 mmHg 38%
    22:00 +34°C° 0 mm 3 mps 718 mmHg 40%
    23:00 +32°C° 0 mm 2 mps 718 mmHg 41%

    27 September, Thursday

    Time Temperature Precipitation Wind Pressure Humidity
    00:00 +32°C° 0 mm 2 mps 718 mmHg 43%
    01:00 +31°C° 0 mm 2 mps 717 mmHg 45%
    02:00 +31°C° 0 mm 2 mps 717 mmHg 46%
    03:00 +31°C° 0 mm 2 mps 717 mmHg 48%
    04:00 +30°C° 0 mm 3 mps 717 mmHg 50%
    05:00 +30°C° 0 mm 3 mps 717 mmHg 53%
    06:00 +30°C° 0 mm 3 mps 718 mmHg 53%
    07:00 +31°C° 0 mm 3 mps 718 mmHg 53%
    08:00 +32°C° 0 mm 4 mps 719 mmHg 53%
    09:00 +34°C° 0 mm 3 mps 719 mmHg 48%
    10:00 +36°C° 0 mm 3 mps 719 mmHg 43%
    11:00 +37°C° 0 mm 3 mps 719 mmHg 39%
    12:00 +38°C° 0 mm 2 mps 718 mmHg 36%
    13:00 +39°C° 0 mm 1 mps 717 mmHg 33%
    14:00 +37°C° 0 mm 0 mps 717 mmHg 30%
    15:00 +39°C° 0 mm 1 mps 717 mmHg 30%
    16:00 +39°C° 0 mm 1 mps 716 mmHg 29%
    17:00 +39°C° 0 mm 2 mps 716 mmHg 29%
    18:00 +39°C° 0 mm 2 mps 717 mmHg 31%
    19:00 +38°C° 0 mm 2 mps 717 mmHg 33%
    20:00 +37°C° 0 mm 2 mps 717 mmHg 35%
    21:00 +36°C° 0 mm 3 mps 717 mmHg 37%
    22:00 +35°C° 0 mm 4 mps 717 mmHg 40%
    23:00 +35°C° 0 mm 4 mps 717 mmHg 43%
    Show more